Location: Elstree
(51.6403°N, 0.2969°W)
Time: 08:09:10
(UTC+00:00)

Envisat - Pass Details

Date: 04 December 2022
Orbit: 763 x 765 km, 98.2° (Epoch: 04 February)

Event Time Altitude Azimuth Distance (km) Brightness Sun altitude
Rises 05:20:37 0° 9° (N) 3,248 6.3 -21.9°
Reaches altitude 10° 05:23:03 10° 2° (N) 2,317 5.4 -21.5°
Enters shadow 05:26:21 32° 329° (NNW) 1,312 3.9 -21.0°
